Central Park, NY

8:44 PM EDT on June 24, 2018 (GMT -0400)
Central Park

Weather History for KNYC - August, 2017

Change the Weather History Date:

Sunday, August 13, 2017

  Actual Average Record
Temperature  
Mean Temperature 77 °F 76 °F  
Max Temperature 83 °F 83 °F 99 °F (2005)
Min Temperature 71 °F 68 °F 55 °F (1930)
Degree Days  
Heating Degree Days 0 0  
Month to date heating degree days 0 0  
Since 1 June heating degree days 24 19  
Since 1 July heating degree days 0 0  
Cooling Degree Days 12 11  
Month to date cooling degree days 129 144  
Year to date cooling degree days 832 780  
Since 1 June cooling degree days 743 711  
Growing Degree Days 26 (Base 50)    
Moisture  
Dew Point 64 °F    
Average Humidity 68    
Maximum Humidity 93    
Minimum Humidity 43    
Precipitation  
Precipitation 0.00 in 0.14 in 2.70 in (1955)
Month to date precipitation 1.41 1.98  
Year to date precipitation 33.14 30.78  
Snow  
Snow 0.00 in 0.00 in 0.00 in (2002)
Month to date snowfall 0.0 0.0  
Since 1 July snowfall 0.0 0.0  
Snow Depth 0.00 in    
Sea Level Pressure  
Sea Level Pressure 29.92 in    
Wind  
Wind Speed 4 mph (WNW)    
Max Wind Speed 10 mph    
Max Gust Speed 17 mph    
Visibility 10 miles    
Events      
T = Trace of Precipitation, MM = Missing Value Source: NWS Daily Summary

Daily Weather History Graph

Daily Weather History Graph

Search for Another Location

Airport or City:

Astronomy

Aug. 13, 2017 Rise Set
Actual Time 6:04 AM EDT 7:56 PM EDT
Civil Twilight 5:34 AM EDT 8:25 PM EDT
Nautical Twilight 4:58 AM EDT 9:01 PM EDT
Astronomical Twilight 4:19 AM EDT 9:40 PM EDT
Moon 11:26 PM EDT (8/13) 12:03 PM EDT (8/13)
Length of Visible Light 14h 51m
Length of Day
13h 51m
Waning Gibbous, 65% of the Moon is Illuminated
Aug 13
Waning Gibbous
Aug 14
Last Quarter
Aug 21
New
Aug 29
First Quarter
Sep 6
Full

Hourly Weather History & Observations

Time (EDT) Temp. Heat Index Dew Point Humidity Pressure Visibility Wind Dir Wind Speed Gust Speed Precip Events Conditions
12:47 AM 73.4 °F - 69.8 °F 88% 29.89 in 10.0 mi Calm Calm - N/A   Overcast
12:51 AM 73.9 °F - 70.0 °F 87% 29.86 in 10.0 mi Calm Calm - N/A   Overcast
1:37 AM 73.9 °F - 70.0 °F 87% 29.89 in 10.0 mi Variable 3.5 mph - N/A   Mostly Cloudy
1:51 AM 73.9 °F - 70.0 °F 87% 29.86 in 10.0 mi Variable 3.5 mph - N/A   Mostly Cloudy
2:16 AM 73.9 °F - 70.0 °F 87% 29.88 in 10.0 mi Variable 4.6 mph - N/A   Scattered Clouds
2:51 AM 73.0 °F - 70.0 °F 90% 29.85 in 10.0 mi Variable 3.5 mph - N/A   Scattered Clouds
3:30 AM 73.0 °F - 70.0 °F 90% 29.88 in 10.0 mi Variable 3.5 mph - N/A   Scattered Clouds
3:41 AM 73.0 °F - 70.0 °F 90% 29.87 in 10.0 mi Calm Calm - N/A   Mostly Cloudy
3:51 AM 73.0 °F - 70.0 °F 90% 29.85 in 10.0 mi Variable 4.6 mph - N/A   Mostly Cloudy
4:51 AM 73.0 °F - 70.0 °F 90% 29.85 in 9.0 mi West 4.6 mph - N/A   Scattered Clouds
5:51 AM 71.1 °F - 69.1 °F 93% 29.87 in 8.0 mi Calm Calm - N/A   Partly Cloudy
6:51 AM 71.1 °F - 66.9 °F 87% 29.88 in 8.0 mi Variable 4.6 mph - N/A   Clear
7:51 AM 72.0 °F - 64.9 °F 78% 29.91 in 10.0 mi WNW 5.8 mph - N/A   Clear
8:51 AM 73.0 °F - 63.0 °F 71% 29.92 in 10.0 mi WNW 8.1 mph - N/A   Clear
9:51 AM 75.0 °F - 61.0 °F 62% 29.93 in 10.0 mi Variable 4.6 mph - N/A   Clear
10:51 AM 78.1 °F - 61.0 °F 56% 29.94 in 10.0 mi Variable 4.6 mph - N/A   Clear
11:51 AM 80.1 °F 81.1 °F 61.0 °F 52% 29.94 in 10.0 mi North - - N/A   Clear
12:51 PM 81.0 °F 81.6 °F 60.1 °F 49% 29.94 in 10.0 mi Variable 4.6 mph - N/A   Clear
1:51 PM 81.0 °F 81.6 °F 60.1 °F 49% 29.94 in 10.0 mi Variable 5.8 mph - N/A   Partly Cloudy
2:51 PM 82.0 °F 82.1 °F 59.0 °F 45% 29.94 in 10.0 mi Variable 6.9 mph - N/A   Partly Cloudy
3:51 PM 82.0 °F 82.1 °F 59.0 °F 45% 29.95 in 10.0 mi Variable 3.5 mph - N/A   Scattered Clouds
4:51 PM 82.0 °F 81.7 °F 57.0 °F 42% 29.96 in 10.0 mi Calm Calm - N/A   Partly Cloudy
5:51 PM 81.0 °F 81.1 °F 57.9 °F 45% 29.96 in 10.0 mi WNW 8.1 mph - N/A   Mostly Cloudy
6:51 PM 80.1 °F 80.4 °F 57.0 °F 45% 29.97 in 10.0 mi Calm Calm - N/A   Partly Cloudy
7:51 PM 78.1 °F - 57.9 °F 50% 29.98 in 10.0 mi West 4.6 mph - N/A   Clear
8:51 PM 77.0 °F - 57.9 °F 52% 30.00 in 10.0 mi Variable 3.5 mph - N/A   Clear
9:51 PM 77.0 °F - 57.9 °F 52% 30.00 in 10.0 mi Calm Calm - N/A   Clear
10:51 PM 75.9 °F - 59.0 °F 56% 30.01 in 10.0 mi WNW 3.5 mph - N/A   Clear
11:51 PM 73.9 °F - 59.0 °F 59% 30.02 in 10.0 mi West 3.5 mph - N/A   Clear